Погода в Конышевке

Россия / Курская область     51°50′31″N   35°17′29″E
темп.,
°C
ветер,
м/с
пор.,
м/с
влажн.,
%
обл.,
%
осадки,
мм/ч
давл.,
гПа
погр.,
м
19 сентября, вс
вс1900:00+9вюв91787100 1.0 1011558
03:00+9вюв81490100 2.4 1011438
06:00+9вюв9179098 0.2 1009478
09:00+9вюв81593100 6.0 1008486
12:00+10вюв61395100 2.5 1008540
15:00+11вюв61194100 4.0 1008525
18:00+11в3797100 0.8 1007281
21:00+12вюв3699100 1.7 1006221
20 сентября, пн
пн2000:00+12вюв2499100 0.0 1006119
03:00+12вюв2294100 0.0 100538
06:00+11юв3698100 1.1 1005192
09:00+12вюв4898100 4.4 1004319
12:00+11юз578891 0.5 1006553
15:00+9юз4788100 0.6 1007607
18:00+9ююз5890100 0.2 1008572
21:00+8ю4892100 0.6 1008552
21 сентября, вт
вт2100:00+8ююв51094100 1.0 1008595
03:00+9юз5996100 2.9 1007579
06:00+8юз6994100 0.9 1009734
09:00+7зюз61093100 1.8 1010673
12:00+7юз61089100 0.1 10111016
15:00+7зюз5989100 0.3 10121053
18:00+6зюз4792100 0.3 1013982
21:00+4зюз4697100 0.8 1014736
22 сентября, ср
ср2200:00+4зюз4697100 0.4 1014723
03:00+5зюз4595100 0.5 1014774
06:00+5зюз3594100 0.3 1014611
09:00+5зюз3593100 0.4 1015575
12:00+5зюз3493100 0.1 1016738
15:00+6юз3491100 0.1 1016753
18:00+6юз2392100 0.1 1016307
21:00+6ю1292100 0.1 1017163
23 сентября, чт
чт2300:00+6юв1292100 0.0 1016107
03:00+6вюв2392100 0.0 1016152
06:00+6вюв2492100 0.0 1015195
09:00+7юв3584100 0.1 1015404
12:00+7ююв3583100 0.2 1014623
15:00+9ююв2471100 0.5 1013876
18:00+7зсз2285100 0.5 101453
21:00+6зсз239178 0.6 101469